Location: Albuquerque Trailhead
(34.7934°N, 106.3736°W)
Time: 11:09:38
(UTC+00:00)

USA 245 - Pass Details

Date: 20 June 2021
Orbit: 262 x 980 km, 97.9° (Epoch: 29 July)

Event Time Altitude Azimuth Distance (km) Brightness Sun altitude
Exits shadow 04:29:04 40° 179° (S) 1,070 4.3 -20.8°
Maximum altitude 04:30:53 78° 258° (WSW) 785 4.0 -21.0°
Drops below altitude 10° 04:36:33 10° 345° (NNW) 2,527 7.6 -21.7°
Sets 04:39:10 0° 347° (NNW) 3,551 8.6 -22.0°
